Weather reports worldwide

Advertisment
Lichteiland Goeree, Netherlands (6320): temperature & dewpoint: 17.10.2019 21:00:00 - 23.10.2019 21:00:00 (CEST)Lichteiland Goeree, Netherlands (6320): water temperature: 17.10.2019 21:00:00 - 23.10.2019 21:00:00 (CEST)Lichteiland Goeree, Netherlands (6320): wind speed & gusts: 17.10.2019 21:00:00 - 23.10.2019 21:00:00 (CEST)Lichteiland Goeree, Netherlands (6320): wind direction: 17.10.2019 21:00:00 - 23.10.2019 21:00:00 (CEST)Lichteiland Goeree, Netherlands (6320): reduced air pressure: 17.10.2019 21:00:00 - 23.10.2019 21:00:00 (CEST)Lichteiland Goeree, Netherlands (6320): visibility: 17.10.2019 21:00:00 - 23.10.2019 21:00:00 (CEST)
Date & Time tt [°C] td [°C] tw [°C] ff [km/h] ff [kn] fx [km/h] fx [kn] dd ppp [hPa] vv [km]
23.10.2019 21:00:00 14,7 12,5 15,0 24 13 25 14 ESE 1008,8 8
23.10.2019 20:00:00 14,6 12,2 15,0 13 7 22 12 ESE 1010,1 8
23.10.2019 19:00:00 14,9 11,9 15,0 16 9 25 14 E 1010,3 9
23.10.2019 18:00:00 14,6 12,3 15,0 28 15 29 16 E 1010,2 8
23.10.2019 17:00:00 14,3 11,3 15,0 29 16 32 18 ENE 1010,8 10
23.10.2019 16:00:00 13,9 11,1 15,0 31 17 32 18 ENE 1011,4 10
23.10.2019 15:00:00 13,7 10,7 15,0 29 16 29 16 ENE 1013,1 10
23.10.2019 14:00:00 13,3 10,7 15,0 22 12 25 14 ENE 1014,2 13
23.10.2019 13:00:00 13,2 10,2 15,0 18 10 25 14 E 1015,4 10
23.10.2019 12:00:00 12,9 9,5 15,0 24 13 29 16 E 1016,0 10
23.10.2019 11:00:00 12,7 9,6 15,0 26 14 25 14 E 1016,5 10
23.10.2019 10:00:00 12,5 9,6 15,0 24 13 25 14 E 1017,6 10
23.10.2019 09:00:00 12,3 9,8 15,0 21 11 22 12 E 1018,6 10
23.10.2019 08:00:00 12,2 10,0 15,0 18 10 18 10 ESE 1018,9 10
23.10.2019 07:00:00 12,8 9,0 15,0 13 7 14 8 E 1019,2 10
23.10.2019 06:00:00 12,9 9,4 15,0 8 4 11 6 ENE 1019,5 10
23.10.2019 05:00:00 12,7 9,2 15,0 4 2 7 4 - 1020,4 10
23.10.2019 04:00:00 12,6 9,5 15,0 4 2 7 4 - 1020,9 10
23.10.2019 03:00:00 12,5 9,6 15,0 5 3 11 6 S 1021,2 10
23.10.2019 02:00:00 12,7 9,8 15,0 8 4 11 6 S 1021,8 10
23.10.2019 01:00:00 12,9 9,0 15,0 9 5 14 8 S 1022,7 10
23.10.2019 00:00:00 12,8 8,9 15,0 9 5 11 6 SSW 1023,0 10
22.10.2019 23:00:00 12,9 9,0 15,0 9 5 11 6 SW 1023,2 10
22.10.2019 22:00:00 12,8 8,8 15,0 8 4 11 6 WSW 1023,2 10
22.10.2019 21:00:00 13,0 8,7 15,0 9 5 14 8 WSW 1023,3 10
22.10.2019 20:00:00 13,2 8,2 15,0 15 8 14 8 W 1023,7 10
22.10.2019 19:00:00 13,4 8,6 15,0 15 8 18 10 W 1023,2 10
22.10.2019 18:00:00 13,7 9,1 15,0 9 5 14 8 SW 1023,3 10
22.10.2019 17:00:00 13,7 9,4 15,0 9 5 11 6 SW 1023,6 10
22.10.2019 16:00:00 13,4 9,2 15,0 9 5 11 6 WNW 1023,6 10
22.10.2019 15:00:00 13,3 9,7 15,0 8 4 11 6 NW 1023,6 10
22.10.2019 14:00:00 13,0 9,8 15,0 13 7 18 10 NNW 1024,1 10
22.10.2019 13:00:00 12,4 11,2 15,0 18 10 25 14 N 1024,1 10
22.10.2019 12:00:00 12,1 11,6 15,0 26 14 29 16 NW 1023,9 3,0
22.10.2019 11:00:00 13,1 11,9 15,0 21 11 22 12 NW 1023,6 10
22.10.2019 10:00:00 13,2 12,0 15,0 22 12 22 12 NW 1023,1 10
22.10.2019 09:00:00 13,2 12,2 15,0 22 12 25 14 NW 1022,0 10
22.10.2019 08:00:00 13,5 12,0 15,0 16 9 29 16 W 1021,3 10
22.10.2019 07:00:00 13,9 12,3 15,0 9 5 11 6 NW 1020,8 10
22.10.2019 06:00:00 13,5 12,6 14,7 8 4 11 6 NNW 1020,6 10
22.10.2019 05:00:00 13,4 12,8 15,0 9 5 11 6 NNE 1020,3 10
22.10.2019 04:00:00 13,2 12,3 15,0 9 5 14 8 N 1020,0 10
22.10.2019 03:00:00 13,6 12,8 15,0 15 8 22 12 SW 1020,0 8
22.10.2019 02:00:00 13,5 12,5 15,0 18 10 22 12 SSW 1019,9 9
22.10.2019 01:00:00 13,6 12,1 15,0 18 10 22 12 SW 1019,6 10
22.10.2019 00:00:00 13,5 11,9 15,0 18 10 22 12 SW 1019,4 10
21.10.2019 23:00:00 13,5 11,7 15,0 21 11 22 12 SW 1019,0 10
21.10.2019 22:00:00 13,4 11,3 15,0 21 11 22 12 SSW 1018,7 10
21.10.2019 21:00:00 13,2 10,9 15,0 18 10 18 10 S 1018,5 10
21.10.2019 20:00:00 13,2 10,6 15,0 18 10 25 14 SSW 1018,0 10
21.10.2019 19:00:00 13,2 10,7 15,0 24 13 25 14 S 1017,4 10
21.10.2019 18:00:00 13,3 10,4 15,0 18 10 22 12 SSW 1016,5 10
21.10.2019 17:00:00 13,2 10,4 15,0 21 11 25 14 SSW 1016,0 10
21.10.2019 16:00:00 13,4 10,5 15,0 28 15 32 18 SSW 1015,9 10
21.10.2019 15:00:00 13,2 12,0 15,0 22 12 29 16 SSW 1015,5 10
21.10.2019 14:00:00 13,4 12,2 15,0 16 9 22 12 SE 1015,2 10
21.10.2019 13:00:00 12,9 11,8 15,0 21 11 22 12 SE 1014,5 10
21.10.2019 12:00:00 12,4 11,3 14,0 22 12 32 18 E 1014,1 10
21.10.2019 11:00:00 12,1 11,0 14,0 34 18 40 21 E 1013,5 10
21.10.2019 10:00:00 12,3 11,0 15,0 42 23 47 25 ENE 1013,0 6
21.10.2019 09:00:00 12,2 11,1 15,0 46 25 54 29 ENE 1011,9 5
21.10.2019 08:00:00 12,1 10,9 14,9 54 29 58 31 ENE 1012,0 1,8
21.10.2019 07:00:00 12,4 10,4 14,8 50 27 58 31 NE 1011,1 3,3
21.10.2019 06:00:00 12,1 9,9 15,0 52 28 58 31 ENE 1011,2 7
21.10.2019 05:00:00 12,9 9,6 15,0 46 25 50 27 ENE 1011,6 10
21.10.2019 04:00:00 13,1 10,4 14,7 46 25 47 25 ENE 1011,6 10
21.10.2019 03:00:00 13,1 10,8 14,7 41 22 43 23 ENE 1011,6 7
21.10.2019 02:00:00 13,4 10,8 15,0 39 21 40 21 NE 1011,5 10
21.10.2019 01:00:00 13,5 10,5 15,0 34 18 36 19 NE 1012,1 10
21.10.2019 00:00:00 13,6 10,1 15,0 37 20 36 19 ENE 1011,3 10
20.10.2019 23:00:00 13,6 10,3 15,0 35 19 36 19 NE 1011,1 10
20.10.2019 22:00:00 13,7 10,2 15,0 29 16 32 18 NE 1011,1 10
20.10.2019 21:00:00 13,7 9,6 15,0 28 15 32 18 NNE 1010,7 10
20.10.2019 20:00:00 13,7 8,8 15,0 24 13 25 14 NNE 1010,6 10
20.10.2019 19:00:00 13,5 9,2 15,0 22 12 25 14 NNE 1010,1 10
20.10.2019 18:00:00 13,4 9,0 15,0 21 11 25 14 NNE 1009,5 10
20.10.2019 17:00:00 13,4 9,4 15,0 22 12 25 14 NNE 1008,9 10
20.10.2019 16:00:00 13,4 9,5 15,0 18 10 22 12 NNE 1009,0 10
20.10.2019 15:00:00 13,4 8,6 15,0 15 8 18 10 NNE 1008,9 10
20.10.2019 14:00:00 13,5 8,8 15,0 15 8 18 10 N 1009,1 10
20.10.2019 13:00:00 13,6 9,0 15,0 13 7 18 10 N 1008,9 10
20.10.2019 12:00:00 13,6 8,5 15,0 15 8 18 10 N 1008,5 10
20.10.2019 11:00:00 13,8 8,6 15,0 13 7 18 10 NNW 1008,4 10
20.10.2019 10:00:00 13,8 9,0 15,0 15 8 14 8 NW 1007,7 10
20.10.2019 09:00:00 14,0 9,0 15,0 8 4 14 8 WNW 1007,4 10
20.10.2019 08:00:00 14,1 8,9 15,0 13 7 14 8 NW 1006,6 10
20.10.2019 07:00:00 14,2 9,3 15,0 16 9 22 12 W 1006,8 10
20.10.2019 06:00:00 13,9 11,2 15,0 22 12 25 14 WSW 1006,3 10
20.10.2019 05:00:00 13,5 11,6 15,0 24 13 29 16 SW 1005,9 10
20.10.2019 04:00:00 13,5 11,5 15,0 28 15 29 16 SW 1005,9 10
20.10.2019 03:00:00 13,4 11,1 15,0 29 16 36 19 SW 1005,7 10
20.10.2019 02:00:00 13,3 11,1 15,0 34 18 36 19 SW 1005,9 10
20.10.2019 01:00:00 13,6 11,3 15,0 34 18 40 21 SW 1005,5 10
20.10.2019 00:00:00 13,7 11,2 15,0 37 20 40 21 SW 1005,1 10
19.10.2019 23:00:00 13,7 11,0 15,0 35 19 40 21 SW 1004,5 10
19.10.2019 22:00:00 13,9 10,6 15,0 39 21 43 23 SW 1004,2 10
19.10.2019 21:00:00 13,8 10,6 15,0 41 22 43 23 SW 1003,8 10
19.10.2019 20:00:00 13,4 10,4 15,0 41 22 47 25 SW 1003,7 10
19.10.2019 19:00:00 13,6 10,5 15,0 42 23 43 23 SW 1002,9 10
19.10.2019 18:00:00 13,7 9,9 15,0 42 23 50 27 SSW 1002,7 10
19.10.2019 17:00:00 13,8 9,9 15,0 48 26 50 27 SW 1002,4 10
19.10.2019 16:00:00 13,6 10,1 15,0 42 23 47 25 SW 1002,0 10
19.10.2019 15:00:00 13,7 9,2 15,0 46 25 50 27 SW 1001,6 10
19.10.2019 14:00:00 13,5 9,8 15,0 42 23 47 25 SW 1001,5 10
19.10.2019 13:00:00 13,4 9,7 15,0 42 23 47 25 SSW 1001,6 10
19.10.2019 12:00:00 13,2 9,8 15,0 42 23 47 25 SW 1001,4 10
19.10.2019 11:00:00 13,2 9,7 15,0 46 25 47 25 SW 1001,3 10
19.10.2019 10:00:00 13,2 10,6 15,0 41 22 43 23 SSW 1001,3 10
19.10.2019 09:00:00 12,7 10,8 15,2 22 12 40 21 W 1001,5 10
19.10.2019 08:00:00 11,3 7,9 15,0 34 18 43 23 W 1001,2 10
19.10.2019 07:00:00 13,1 10,4 15,0 39 21 43 23 SSW 1001,4 10
19.10.2019 06:00:00 13,3 10,1 15,0 42 23 47 25 SSW 1001,7 10
19.10.2019 05:00:00 13,3 10,0 15,0 46 25 50 27 SSW 1001,8 10
19.10.2019 04:00:00 13,6 9,9 15,0 48 26 50 27 SSW 1002,0 10
19.10.2019 03:00:00 13,9 9,9 15,0 44 24 54 29 SSW 1002,3 10
19.10.2019 02:00:00 13,9 9,2 15,0 48 26 54 29 SSW 1002,6 10
19.10.2019 01:00:00 13,9 9,5 15,0 48 26 54 29 SSW 1003,0 10
19.10.2019 00:00:00 13,7 9,0 15,0 48 26 54 29 SSW 1003,3 10
18.10.2019 23:00:00 13,3 9,2 15,0 41 22 50 27 S 1003,8 10
18.10.2019 22:00:00 13,6 9,1 15,0 50 27 68 37 SSW 1003,7 10
18.10.2019 21:00:00 13,3 9,0 15,0 61 33 76 41 SW 1003,7 10
18.10.2019 20:00:00 14,1 9,2 15,0 61 33 72 39 SSW 1003,7 10
18.10.2019 19:00:00 14,4 9,1 15,0 63 34 72 39 SW 1003,1 10
18.10.2019 18:00:00 12,9 9,6 15,0 63 34 65 35 SSW 1003,0 10
18.10.2019 17:00:00 13,5 9,7 15,0 61 33 76 41 SW 1002,6 10
18.10.2019 16:00:00 13,6 9,6 15,0 63 34 68 37 SW 1002,0 10
18.10.2019 15:00:00 13,5 9,3 15,0 63 34 68 37 WSW 1001,9 10
18.10.2019 14:00:00 13,9 8,7 15,0 61 33 72 39 WSW 1001,2 10
18.10.2019 13:00:00 13,6 8,6 15,0 67 36 72 39 WSW 1000,1 10
18.10.2019 12:00:00 12,6 9,4 15,0 68 37 72 39 SW 999,4 10
18.10.2019 11:00:00 13,4 8,9 15,0 48 26 72 39 SW 999,0 10
18.10.2019 10:00:00 10,8 9,6 15,2 48 26 65 35 SW 999,7 3,2
18.10.2019 09:00:00 14,2 11,7 15,0 52 28 54 29 S 999,9 10
18.10.2019 08:00:00 13,7 11,7 15,0 46 25 50 27 S 1000,7 10
18.10.2019 07:00:00 13,7 11,7 15,0 44 24 50 27 S 1001,9 10
18.10.2019 06:00:00 13,5 11,8 15,0 39 21 43 23 S 1002,7 10
18.10.2019 05:00:00 13,7 11,7 15,0 39 21 43 23 SSW 1003,5 10
18.10.2019 04:00:00 14,0 11,9 15,0 39 21 43 23 SSW 1004,0 10
18.10.2019 03:00:00 14,2 12,2 15,0 37 20 43 23 S 1004,7 10
18.10.2019 02:00:00 14,2 12,5 15,0 39 21 43 23 SSW 1005,4 10
18.10.2019 01:00:00 14,2 12,2 15,0 37 20 43 23 S 1005,7 10
18.10.2019 00:00:00 14,5 11,7 15,0 35 19 40 21 S 1006,0 10
17.10.2019 23:00:00 14,6 11,1 15,0 31 17 36 19 S 1006,8 10
17.10.2019 22:00:00 14,8 10,7 15,0 35 19 40 21 S 1007,0 10
17.10.2019 21:00:00 14,7 11,2 15,0 26 14 29 16 S 1007,4 10

tt = temperature
td = dewpoint
tw = water temperature
ff = wind speed
fx = gusts
dd = wind direction
ppp = reduced air pressure
vv = visibility

Next stations